Location: Prague
(50.0830°N, 14.4670°E)
Time: 22:22:29
(UTC+01:00)

BEESAT 2 - Pass Details

Date: 06 December 2021
Orbit: 498 x 513 km, 64.9° (Epoch: 22 January)

Event Time Altitude Azimuth Distance (km) Brightness Sun altitude
Exits shadow 06:17:15 23° 290° (WNW) 1,148 ? -13.4°
Maximum altitude 06:19:07 37° 239° (WSW) 822 ? -13.1°
Drops below altitude 10° 06:22:42 10° 172° (S) 1,733 ? -12.6°
Sets 06:24:57 0° 163° (SSE) 2,612 ? -12.2°
